{"data":{"norad_id":62200,"epoch":"2026-09-21T00:30:19.957248Z","epoch_age_seconds":132627,"freshness":"FRESH","line1":"1 62200U 24229J   26264.02106432  .00009269  00000+0  34585-3 0  9990","line2":"2 62200  43.0007 247.6839 0001445 265.1560  94.9127 15.27587444100431","mean_motion":15.27587444,"eccentricity":0.0001445,"inclination_deg":43.0007,"raan_deg":247.6839,"arg_perigee_deg":265.156,"mean_anomaly_deg":94.9127,"bstar":0.00034585,"rev_number":10043,"period_min":94.266289347689,"perigee_km":482.03536794622,"apogee_km":484.01824428619,"semimajor_km":6861.1638061162,"source":"CELESTRAK","updated_at":"2026-09-22T09:00:49.540495Z"}}